Total_Precipitation_Accumulation
0.35 0.50 0.59 0.75 1.00 1.17 1.11 1.01 0.91 0.84 0.83 0.81 0.72 0.62 0.51 0.46 0.39 0.34 0.31 0.30 0.27 0.28 0.22 0.14 0.13 0.13 0.12 0.11 0.11 0.11 0.10 0.08 0.10 0.08 0.04 0.02 0.01 0.01 0.01 0.01 0.01 0.01 0.03
0.26 0.33 0.41 0.55 0.78 1.00 1.09 1.06 1.00 0.94 0.86 0.78 0.82 0.83 0.85 0.78 0.68 0.60 0.49 0.43 0.39 0.40 0.35 0.30 0.29 0.28 0.24 0.20 0.19 0.18 0.14 0.12 0.15 0.15 0.13 0.05 0.02 0.01 0.01 0.01 0.01 0.02 0.03
0.17 0.21 0.25 0.31 0.48 0.70 0.91 1.02 1.04 1.03 1.02 1.04 1.16 1.13 1.00 0.82 0.67 0.53 0.49 0.51 0.53 0.53 0.49 0.48 0.45 0.43 0.40 0.32 0.30 0.28 0.24 0.22 0.21 0.21 0.23 0.15 0.06 0.03 0.02 0.02 0.02 0.03 0.03
0.09 0.14 0.17 0.21 0.30 0.45 0.63 0.79 0.95 1.04 1.09 1.23 1.22 1.15 0.97 0.78 0.67 0.70 0.76 0.74 0.71 0.67 0.63 0.59 0.56 0.54 0.48 0.40 0.41 0.42 0.36 0.32 0.26 0.25 0.24 0.22 0.16 0.14 0.08 0.04 0.04 0.05 0.04
0.05 0.08 0.12 0.15 0.20 0.30 0.42 0.51 0.65 0.87 0.96 0.96 0.99 1.07 1.02 0.91 0.89 0.85 0.80 0.73 0.67 0.67 0.65 0.62 0.59 0.56 0.53 0.48 0.47 0.45 0.44 0.43 0.38 0.32 0.29 0.27 0.21 0.16 0.17 0.11 0.07 0.07 0.07
0.03 0.05 0.09 0.10 0.11 0.17 0.29 0.40 0.46 0.59 0.69 0.74 0.79 0.83 0.84 0.87 0.85 0.77 0.71 0.66 0.60 0.57 0.57 0.57 0.56 0.55 0.53 0.50 0.49 0.50 0.51 0.48 0.42 0.34 0.29 0.32 0.29 0.23 0.23 0.22 0.14 0.13 0.13
0.02 0.04 0.07 0.07 0.06 0.09 0.14 0.23 0.33 0.40 0.44 0.54 0.63 0.66 0.69 0.73 0.74 0.73 0.69 0.65 0.58 0.50 0.48 0.49 0.50 0.53 0.55 0.57 0.59 0.55 0.51 0.52 0.50 0.45 0.39 0.37 0.35 0.34 0.35 0.35 0.28 0.23 0.19
0.01 0.04 0.05 0.05 0.03 0.04 0.06 0.09 0.14 0.20 0.26 0.33 0.39 0.44 0.48 0.46 0.46 0.49 0.49 0.48 0.46 0.47 0.47 0.48 0.50 0.53 0.54 0.54 0.53 0.50 0.48 0.49 0.48 0.47 0.44 0.39 0.34 0.35 0.39 0.42 0.47 0.45 0.37
0.01 0.03 0.03 0.02 0.02 0.02 0.03 0.04 0.06 0.08 0.11 0.16 0.21 0.22 0.25 0.27 0.29 0.30 0.33 0.33 0.33 0.35 0.37 0.40 0.42 0.42 0.43 0.42 0.41 0.39 0.39 0.41 0.41 0.41 0.41 0.38 0.33 0.33 0.36 0.41 0.49 0.57 0.54
0.01 0.02 0.02 0.01 0.01 0.02 0.02 0.03 0.03 0.04 0.06 0.09 0.11 0.12 0.13 0.15 0.17 0.18 0.18 0.20 0.23 0.25 0.27 0.30 0.32 0.32 0.31 0.29 0.28 0.28 0.28 0.30 0.30 0.30 0.31 0.31 0.29 0.30 0.33 0.37 0.43 0.49 0.57
0.01 0.01 0.01 0.00 0.00 0.01 0.01 0.02 0.04 0.05 0.05 0.07 0.07 0.08 0.08 0.10 0.11 0.11 0.12 0.16 0.19 0.20 0.23 0.24 0.24 0.23 0.23 0.23 0.22 0.21 0.20 0.20 0.20 0.20 0.22 0.24 0.24 0.25 0.27 0.31 0.37 0.42 0.48
0.01 0.01 0.00 0.00 0.00 0.01 0.02 0.04 0.06 0.06 0.05 0.06 0.07 0.07 0.07 0.07 0.08 0.08 0.09 0.10 0.12 0.14 0.16 0.17 0.16 0.14 0.13 0.14 0.15 0.15 0.15 0.15 0.16 0.17 0.19 0.21 0.23 0.26 0.28 0.31 0.34 0.37 0.39
0.01 0.01 0.01 0.01 0.01 0.02 0.05 0.07 0.07 0.05 0.04 0.06 0.07 0.08 0.08 0.09 0.09 0.09 0.10 0.10 0.10 0.10 0.09 0.08 0.08 0.08 0.08 0.09 0.10 0.11 0.12 0.13 0.15 0.17 0.19 0.21 0.24 0.27 0.28 0.29 0.31 0.32 0.31
0.02 0.02 0.02 0.02 0.02 0.03 0.06 0.09 0.07 0.06 0.06 0.07 0.09 0.10 0.12 0.12 0.13 0.13 0.12 0.11 0.10 0.09 0.09 0.08 0.07 0.07 0.08 0.09 0.10 0.11 0.13 0.15 0.17 0.19 0.22 0.24 0.26 0.27 0.28 0.29 0.30 0.28 0.26
0.03 0.02 0.03 0.03 0.04 0.04 0.06 0.08 0.10 0.10 0.12 0.13 0.13 0.14 0.14 0.14 0.14 0.13 0.12 0.10 0.08 0.07 0.07 0.08 0.09 0.10 0.10 0.12 0.13 0.15 0.18 0.22 0.25 0.27 0.29 0.30 0.32 0.31 0.28 0.25 0.22 0.19 0.18
0.03 0.02 0.03 0.04 0.05 0.05 0.06 0.08 0.11 0.13 0.14 0.16 0.15 0.15 0.15 0.14 0.13 0.11 0.10 0.09 0.09 0.10 0.12 0.13 0.16 0.19 0.22 0.31 0.28 0.23 0.23 0.27 0.29 0.30 0.30 0.29 0.28 0.25 0.23 0.20 0.18 0.19 0.23
0.04 0.03 0.03 0.03 0.04 0.04 0.08 0.13 0.16 0.15 0.17 0.17 0.15 0.15 0.16 0.16 0.15 0.13 0.15 0.20 0.23 0.25 0.28 0.30 0.32 0.35 0.42 0.47 0.40 0.37 0.31 0.31 0.31 0.29 0.26 0.23 0.20 0.18 0.14 0.12 0.13 0.16 0.19
0.03 0.02 0.02 0.03 0.03 0.04 0.08 0.15 0.21 0.24 0.27 0.29 0.25 0.21 0.22 0.26 0.31 0.35 0.38 0.44 0.51 0.55 0.57 0.59 0.56 0.53 0.53 0.50 0.42 0.38 0.32 0.30 0.26 0.21 0.16 0.13 0.10 0.08 0.08 0.09 0.14 0.11 0.08
0.04 0.03 0.03 0.03 0.04 0.05 0.08 0.13 0.22 0.28 0.33 0.37 0.39 0.39 0.41 0.48 0.53 0.60 0.65 0.67 0.73 0.72 0.68 0.65 0.60 0.53 0.46 0.38 0.29 0.22 0.18 0.16 0.13 0.10 0.07 0.06 0.05 0.06 0.10 0.15 0.17 0.07 0.01
0.08 0.05 0.05 0.06 0.08 0.10 0.14 0.21 0.29 0.38 0.44 0.49 0.54 0.55 0.57 0.60 0.62 0.63 0.63 0.60 0.60 0.58 0.51 0.45 0.40 0.34 0.28 0.22 0.16 0.11 0.09 0.07 0.05 0.03 0.03 0.03 0.03 0.07 0.13 0.13 0.09 0.02 0.01
0.18 0.17 0.16 0.18 0.20 0.22 0.29 0.38 0.45 0.53 0.58 0.59 0.63 0.64 0.61 0.58 0.54 0.47 0.40 0.37 0.33 0.29 0.25 0.22 0.19 0.15 0.12 0.10 0.07 0.05 0.04 0.03 0.02 0.02 0.01 0.01 0.05 0.10 0.12 0.07 0.02 0.02 0.05
0.19 0.23 0.27 0.27 0.28 0.33 0.40 0.47 0.53 0.55 0.51 0.46 0.42 0.39 0.34 0.30 0.27 0.23 0.20 0.18 0.16 0.14 0.12 0.10 0.08 0.06 0.05 0.04 0.04 0.03 0.03 0.03 0.03 0.02 0.01 0.03 0.08 0.08 0.04 0.01 0.01 0.03 0.03
0.08 0.12 0.17 0.20 0.20 0.22 0.24 0.26 0.25 0.22 0.19 0.16 0.14 0.12 0.11 0.11 0.11 0.10 0.10 0.09 0.08 0.07 0.06 0.04 0.03 0.03 0.03 0.03 0.03 0.03 0.04 0.05 0.04 0.03 0.04 0.06 0.05 0.01 0.00 0.00 0.01 0.01 0.00
0.05 0.05 0.06 0.06 0.06 0.06 0.06 0.06 0.05 0.05 0.04 0.04 0.05 0.05 0.05 0.05 0.05 0.05 0.05 0.05 0.04 0.05 0.05 0.05 0.04 0.04 0.03 0.03 0.03 0.03 0.03 0.04 0.04 0.04 0.04 0.03 0.01 0.00 0.00 0.00 0.00 0.00 0.01
0.06 0.06 0.07 0.07 0.07 0.06 0.06 0.06 0.05 0.04 0.04 0.05 0.05 0.06 0.06 0.07 0.07 0.07 0.06 0.07 0.07 0.08 0.07 0.06 0.05 0.05 0.04 0.04 0.06 0.06 0.05 0.05 0.05 0.04 0.02 0.01 0.01 0.00 0.00 0.00 0.00 0.00 0.01
0.05 0.06 0.07 0.08 0.09 0.08 0.07 0.07 0.06 0.06 0.06 0.06 0.07 0.07 0.07 0.08 0.08 0.08 0.08 0.10 0.09 0.10 0.09 0.08 0.07 0.06 0.06 0.07 0.07 0.07 0.07 0.07 0.06 0.04 0.02 0.01 0.01 0.01 0.01 0.01 0.01 0.01 0.02